Location: Faicchio
(41.2833°N, 14.4833°E)
Time: 05:32:45
(UTC+00:00)

Cosmos 1975 Rocket - Pass Details

Date: 15 June 2025
Orbit: 597 x 628 km, 82.5° (Epoch: 16 July)

Event Time Altitude Azimuth Distance (km) Brightness Sun altitude
Exits shadow 00:52:19 25° 142° (SE) 1,271 4.4 -20.6°
Maximum altitude 00:54:17 39° 92° (E) 952 4.2 -20.4°
Drops below altitude 10° 00:58:25 10° 24° (NNE) 2,008 6.9 -20.0°
Sets 01:00:46 0° 16° (NNE) 2,916 8.0 -19.8°
